Regional Weather Roundup
Issued by NWS

Home | Current Version | Previous Version | Text Only | Print | Product List | Glossary On
Versions: 1 2 3 4 5 6 7 8 9 10 11 12 13 14 15 16 17 18 19 20 21 22 23 24 25 26 27 28 29 30 31 32 33 34 35 36 37 38 39 40 41 42 43 44 45 46 47 48 49
000
ASUS46 KSEW 280810
RWRWA

WASHINGTON REGIONAL WEATHER ROUNDUP
NATIONAL WEATHER SERVICE SEATTLE WA
100 AM PDT FRI AUG 28 2015

NOTE:"FAIR" INDICATES FEW OR NO CLOUDS BELOW 12,000 FEET WITH NO
SIGNIFICANT WEATHER AND/OR OBSTRUCTIONS TO VISIBILITY.

WAZ505-507>509-280900-
SEATTLE, TACOMA, EVERETT, AND VICINITY

CITY           SKY/WX    TMP DP  RH WIND       PRES   REMARKS
EVERETT        CLOUDY    62  52  69 N7        29.98S
BOEING FIELD   CLOUDY    74  42  31 SE9       29.95S
RENTON         CLOUDY    73  44  35 SE5       29.96R
SEATAC AIRPORT CLOUDY    69  47  45 S6        29.97S
JBLM-MCCHORD   CLOUDY    68  47  47 W3        29.98R
PUYALLUP       CLOUDY    68  48  49 CALM      30.00R
BREMERTON      CLOUDY    66  46  48 S8        29.99S
JBLM-FT LEWIS  CLOUDY    67  50  53 W2        29.97S
TACOMA NARROWS CLOUDY    67  47  48 S9        29.98R
$$

WAZ001-503-506-510-514-515-280900-
NORTH INTERIOR

CITY           SKY/WX    TMP DP  RH WIND       PRES   REMARKS
BELLINGHAM     LGT RAIN  64  57  78 S6        29.96S
FRIDAY HARBOR  LGT RAIN  57  55  93 CALM      29.98R
EASTSOUND      LGT RAIN  61  55  82 S3        29.96R
PORT ANGELES   CLOUDY    58  54  86 W8        29.98F
PORT TOWNSEND  CLOUDY    64  54  68 W10G17    29.97R
NAS WHIDBEY    LGT RAIN  59  54  83 CALM      30.00S
ARLINGTON      CLOUDY    63  48  59 CALM      29.97R
BURLINGTON     CLOUDY    63  55  77 SE5       29.97S
$$

WAZ020-022-039-040-504-511-512-280900-
SOUTHWEST INTERIOR

CITY           SKY/WX    TMP DP  RH WIND       PRES   REMARKS
SHELTON        CLOUDY    64  51  62 S9        29.95F
OLYMPIA        CLOUDY    67  46  47 W6        29.98R
CHEHALIS       MOCLDY    68  50  52 CALM      30.00R
KELSO          NOT AVBL
VANCOUVER      CLOUDY    72  49  44 NW3       29.99R
SCAPPOOSE, OR  CLOUDY    67  49  52 SE3       29.99R
PORTLAND, OR   CLOUDY    72  52  49 W3        30.00R
$$

WAZ021-516-517-280900-
WASHINGTON COAST

CITY           SKY/WX    TMP DP  RH WIND       PRES   REMARKS
FORKS          CLOUDY    58  57  97 CALM      29.97F
HOQUIAM        CLOUDY    60  55  83 SE3       30.01R
ASTORIA, OR    LGT RAIN  60  57  89 S5        30.02S
$$

WAZ019-023-024-040-518-519-280900-
CASCADE MOUNTAINS AND COLUMBIA GORGE

CITY           SKY/WX    TMP DP  RH WIND       PRES   REMARKS
TROUTDALE, OR  CLOUDY    74  41  30 SW8       30.00R
THE DALLES, OR MOCLDY    76  44  32 CALM      29.92S
$$

WAZ026-027-041>044-520-521-280900-
EAST SLOPES

CITY           SKY/WX    TMP DP  RH WIND       PRES   REMARKS
OMAK           CLOUDY    65  40  39 NW7       29.91S HAZE
WENATCHEE      CLOUDY    77  39  25 NW6       29.92R
ELLENSBURG     CLOUDY    72  43  35 NW13      29.96S
YAKIMA         PTCLDY    64  48  56 W5        29.93F
$$

WAZ028-034-035-280900-
COLUMBIA BASIN

CITY           SKY/WX    TMP DP  RH WIND       PRES   REMARKS
EPHRATA        MOCLDY    76  39  26 W3        29.91S
MOSES LAKE     MOCLDY    70  45  40 N3        29.91S
PASCO          MOCLDY    66  54  65 E5        29.89S
HERMISTON, OR  MOCLDY    70  44  39 CALM      29.91R
$$

WAZ036>038-280900-
NORTHEAST WASHINGTON

CITY           SKY/WX    TMP DP  RH WIND       PRES   REMARKS
SPOKANE GEIGER CLOUDY    69  40  34 SE5       29.98S
SPOKANE FELTS  PTCLDY    66  42  41 N3        29.97S
FAIRCHILD AFB  PTCLDY    66  40  37 S9        29.98S
COEURDALENE,ID PTCLDY    63  43  48 E3        29.99R
DEER PARK      CLEAR     57  38  48 CALM      29.98R
$$

WAZ029>033-280900-
SOUTHEAST WASHINGTON

CITY           SKY/WX    TMP DP  RH WIND       PRES   REMARKS
PULLMAN        PTCLDY    63  40  42 CALM      30.03S
LEWISTON, ID   PTCLDY    69  39  33 SE6       29.95F
WALLA WALLA    MOCLDY    74  41  30 E6        29.93R
PENDLETON, OR  CLOUDY    68  39  34 E6        29.95S
$$



USA.gov is the U.S. government's official web portal to all federal, state and local government web resources and services.